contact:dominique.lefevre@mio.osupytheas.fr, maurice.libes@osupytheas.fr, didier.mallarino@osupytheas.fr
Project:EMSO http://www.emso-fr.org/EMSO-France
Depth: 2436.0 m
Title:EMSO Ligure Ouest : Data MII capteur AQUADOPP
Date,Latitude,Longitude,X_East,Y_North,Z_Up,Amplitude_X,Amplitude_Y,Amplitude_Z,Batterie,SoundSpeed,Heading,Pitch,Roll,Pressure,TIS,Speed,Direction
, degrees North, degrees East, m.s-1, m.s-1,m.s-1, 1, 1, 1, Volt, m.s-1, degree, degree, degree, dbar, degree_C, m.s-1, degree
2019-07-25T00:01:43,42.805,6.029,0.071,-0.004,-0.008,102.0,113.0,99.0,13.4,1505.3,325.0,-0.7,1.8,2470.173,13.32,0.071,93.2
2019-07-25T00:04:44,42.805,6.029,0.055,-0.01,-0.008,103.0,110.0,99.0,13.3,1505.3,323.6,-0.7,1.9,2470.152,13.32,0.055,100.3
2019-07-25T00:07:45,42.805,6.029,0.028,0.009,-0.03,104.0,113.0,100.0,13.3,1505.3,323.3,-0.7,1.8,2470.135,13.32,0.029,72.2
2019-07-25T00:10:46,42.805,6.029,0.022,-0.011,-0.024,103.0,112.0,100.0,13.4,1505.3,324.5,-0.7,1.8,2470.166,13.32,0.024,116.6
2019-07-25T00:13:47,42.805,6.029,0.043,-0.004,-0.009,104.0,111.0,99.0,13.4,1505.3,327.4,-0.7,1.9,2470.119,13.32,0.043,95.3
2019-07-25T00:16:48,42.805,6.029,0.041,0.008,0.004,103.0,108.0,101.0,13.3,1505.3,323.9,-0.7,1.8,2470.148,13.32,0.041,79.0
2019-07-25T00:19:49,42.805,6.029,0.012,0.008,-0.041,103.0,109.0,99.0,13.4,1505.3,326.0,-0.7,1.9,2470.147,13.32,0.014,56.3
2019-07-25T00:22:50,42.805,6.029,0.052,0.007,0.003,103.0,110.0,99.0,13.4,1505.3,326.6,-0.7,1.9,2470.153,13.32,0.052,82.3
2019-07-25T00:25:51,42.805,6.029,0.026,0.003,-0.021,103.0,110.0,98.0,13.3,1505.3,326.6,-0.7,1.8,2470.155,13.32,0.026,83.4
2019-07-25T00:28:52,42.805,6.029,0.046,-0.004,0.011,102.0,109.0,100.0,13.3,1505.3,325.6,-0.7,1.8,2470.167,13.32,0.046,95.0
2019-07-25T00:31:53,42.805,6.029,0.037,0.003,0.005,102.0,110.0,98.0,13.3,1505.3,326.3,-0.7,1.8,2470.186,13.32,0.037,85.4
2019-07-25T00:34:54,42.805,6.029,0.042,-0.009,-0.052,102.0,111.0,98.0,13.3,1505.3,324.7,-0.7,1.8,2470.167,13.32,0.042,102.1
2019-07-25T00:37:55,42.805,6.029,0.055,-0.031,0.018,103.0,109.0,99.0,13.4,1505.3,325.2,-0.7,1.8,2470.119,13.32,0.063,119.4
2019-07-25T00:40:56,42.805,6.029,0.026,0.006,-0.019,103.0,111.0,100.0,13.4,1505.3,324.4,-0.7,1.9,2470.191,13.32,0.026,77.0
2019-07-25T00:43:57,42.805,6.029,0.024,0.011,-0.055,103.0,110.0,99.0,13.4,1505.3,324.3,-0.7,1.8,2470.164,13.32,0.026,65.4
2019-07-25T00:46:58,42.805,6.029,0.025,-0.004,-0.007,103.0,112.0,99.0,13.3,1505.3,324.9,-0.7,1.9,2470.16,13.32,0.025,99.1
2019-07-25T00:49:59,42.805,6.029,0.05,0.024,-0.02,102.0,112.0,99.0,13.4,1505.3,327.2,-0.7,1.8,2470.13,13.32,0.055,64.4
2019-07-25T00:53:00,42.805,6.029,0.02,-0.008,-0.015,103.0,112.0,101.0,13.3,1505.3,323.6,-0.7,1.8,2470.166,13.32,0.021,111.8
2019-07-25T00:56:01,42.805,6.029,0.036,0.015,-0.017,103.0,110.0,100.0,13.3,1505.3,323.7,-0.7,1.8,2470.166,13.32,0.039,67.4
2019-07-25T00:59:02,42.805,6.029,0.051,0.019,0.001,103.0,111.0,99.0,13.4,1505.3,326.9,-0.7,1.8,2470.163,13.32,0.054,69.6
2019-07-25T01:02:03,42.805,6.029,0.031,-0.003,-0.028,102.0,112.0,99.0,13.4,1505.3,326.5,-0.7,1.9,2470.167,13.32,0.031,95.5
2019-07-25T01:05:04,42.805,6.029,0.05,-0.003,-0.009,104.0,111.0,99.0,13.3,1505.3,325.7,-0.7,1.8,2470.154,13.32,0.05,93.4
2019-07-25T01:08:05,42.805,6.029,0.029,0.003,-0.019,102.0,110.0,100.0,13.4,1505.3,326.3,-0.7,1.8,2470.156,13.32,0.029,84.1
2019-07-25T01:11:06,42.805,6.029,0.042,-0.008,0.001,102.0,111.0,100.0,13.3,1505.3,326.5,-0.7,1.9,2470.157,13.32,0.042,100.8
2019-07-25T01:14:07,42.805,6.029,0.031,0.004,-0.022,102.0,110.0,99.0,13.4,1505.3,324.6,-0.7,1.8,2470.126,13.32,0.031,82.7
2019-07-25T01:17:08,42.805,6.029,0.009,0.006,-0.03,102.0,110.0,99.0,13.3,1505.3,326.3,-0.7,1.9,2470.154,13.32,0.01,56.3
2019-07-25T01:20:09,42.805,6.029,0.023,-0.005,-0.039,104.0,109.0,100.0,13.3,1505.3,324.8,-0.7,1.9,2470.183,13.32,0.023,102.3
2019-07-25T01:23:10,42.805,6.029,0.039,0.003,-0.012,102.0,112.0,98.0,13.3,1505.3,326.8,-0.7,1.8,2470.191,13.32,0.039,85.6
2019-07-25T01:26:11,42.805,6.029,0.023,0.009,-0.034,103.0,111.0,100.0,13.3,1505.3,326.6,-0.7,1.8,2470.147,13.32,0.024,68.6
2019-07-25T01:29:12,42.805,6.029,0.018,0.0,-0.042,100.0,109.0,100.0,13.4,1505.3,324.8,-0.7,1.9,2470.161,13.32,0.018,90.0
2019-07-25T01:32:13,42.805,6.029,0.024,0.0,-0.02,101.0,112.0,99.0,13.4,1505.3,325.6,-0.7,1.8,2470.152,13.32,0.024,90.0
2019-07-25T01:35:14,42.805,6.029,0.045,0.007,-0.031,103.0,111.0,99.0,13.4,1505.3,324.1,-0.7,1.8,2470.123,13.32,0.045,81.2
2019-07-25T01:38:15,42.805,6.029,0.041,0.007,-0.012,103.0,114.0,99.0,13.3,1505.3,326.6,-0.7,1.9,2470.225,13.32,0.041,80.3
2019-07-25T01:41:16,42.805,6.029,0.039,-0.008,-0.005,103.0,112.0,99.0,13.4,1505.3,328.9,-0.8,1.8,2470.114,13.32,0.039,101.6
2019-07-25T01:44:17,42.805,6.029,0.027,-0.015,-0.032,102.0,112.0,99.0,13.4,1505.3,328.2,-0.7,1.8,2470.117,13.32,0.03,119.1
2019-07-25T01:47:18,42.805,6.029,0.043,0.006,-0.008,103.0,109.0,98.0,13.4,1505.3,327.8,-0.7,1.8,2470.165,13.32,0.043,82.1
2019-07-25T01:50:19,42.805,6.029,0.023,0.0,-0.008,102.0,113.0,99.0,13.4,1505.3,328.4,-0.7,1.8,2470.093,13.32,0.023,90.0
2019-07-25T01:53:20,42.805,6.029,0.018,0.006,-0.026,102.0,113.0,98.0,13.4,1505.3,325.5,-0.7,1.8,2470.145,13.32,0.018,71.6
2019-07-25T01:56:21,42.805,6.029,0.035,-0.005,-0.01,102.0,111.0,99.0,13.3,1505.3,323.5,-0.7,1.8,2470.131,13.32,0.035,98.1
2019-07-25T01:59:22,42.805,6.029,0.025,0.005,-0.037,101.0,112.0,98.0,13.4,1505.3,324.7,-0.7,1.9,2470.154,13.32,0.025,78.7
2019-07-25T02:02:23,42.805,6.029,0.009,0.003,-0.034,103.0,112.0,98.0,13.4,1505.3,326.5,-0.7,1.9,2470.152,13.32,0.009,71.6
2019-07-25T02:05:24,42.805,6.029,0.036,0.008,-0.005,102.0,111.0,99.0,13.3,1505.3,325.7,-0.7,1.9,2470.172,13.32,0.036,77.5
2019-07-25T02:08:25,42.805,6.029,0.033,0.02,-0.051,102.0,112.0,97.0,13.4,1505.3,324.2,-0.7,1.8,2470.155,13.32,0.038,58.8
2019-07-25T02:11:26,42.805,6.029,0.044,0.01,-0.012,102.0,112.0,98.0,13.4,1505.3,324.4,-0.7,1.8,2470.21,13.32,0.045,77.2
2019-07-25T02:14:27,42.805,6.029,0.028,0.002,-0.019,103.0,109.0,98.0,13.4,1505.3,327.2,-0.7,1.9,2470.141,13.32,0.028,85.9
2019-07-25T02:17:28,42.805,6.029,0.039,0.003,-0.019,103.0,112.0,98.0,13.4,1505.3,323.7,-0.7,1.8,2470.122,13.32,0.039,85.6
2019-07-25T02:20:29,42.805,6.029,0.022,-0.003,-0.023,101.0,113.0,99.0,13.4,1505.3,326.9,-0.7,1.8,2470.166,13.32,0.022,97.8
2019-07-25T02:23:30,42.805,6.029,0.03,0.01,-0.011,102.0,114.0,99.0,13.4,1505.3,325.0,-0.7,1.8,2470.112,13.32,0.031,71.6
2019-07-25T02:26:31,42.805,6.029,0.01,-0.013,-0.025,102.0,112.0,100.0,13.4,1505.3,326.3,-0.7,1.8,2470.123,13.32,0.016,142.4
2019-07-25T02:29:32,42.805,6.029,0.031,0.019,-0.011,101.0,112.0,98.0,13.4,1505.3,323.6,-0.7,1.8,2470.153,13.32,0.036,58.5
2019-07-25T02:32:33,42.805,6.029,0.013,0.024,-0.012,102.0,113.0,99.0,13.4,1505.3,325.9,-0.7,1.8,2470.152,13.32,0.027,28.4
2019-07-25T02:35:34,42.805,6.029,0.025,0.024,-0.017,101.0,113.0,99.0,13.4,1505.3,325.2,-0.6,1.8,2470.164,13.32,0.034,46.2
2019-07-25T02:38:35,42.805,6.029,0.037,0.023,-0.017,104.0,109.0,99.0,13.4,1505.3,324.4,-0.8,1.8,2470.15,13.32,0.043,58.1
2019-07-25T02:41:36,42.805,6.029,0.02,0.004,-0.021,103.0,113.0,98.0,13.4,1505.3,326.7,-0.7,1.8,2470.171,13.32,0.02,78.7
2019-07-25T02:44:37,42.805,6.029,0.034,-0.01,-0.041,102.0,112.0,100.0,13.4,1505.3,328.2,-0.7,1.8,2470.144,13.32,0.035,106.4
2019-07-25T02:47:38,42.805,6.029,0.02,0.016,-0.011,102.0,110.0,100.0,13.4,1505.3,324.4,-0.7,1.8,2470.144,13.32,0.025,51.3
2019-07-25T02:50:39,42.805,6.029,0.034,0.0,-0.03,102.0,113.0,99.0,13.4,1505.3,323.6,-0.7,1.8,2470.147,13.32,0.034,90.0
2019-07-25T02:53:40,42.805,6.029,0.036,0.008,-0.027,104.0,110.0,99.0,13.4,1505.3,326.8,-0.7,1.8,2470.076,13.32,0.036,77.5
2019-07-25T02:56:41,42.805,6.029,0.038,0.012,-0.025,105.0,110.0,99.0,13.4,1505.3,326.9,-0.7,1.8,2470.113,13.32,0.039,72.5
2019-07-25T02:59:42,42.805,6.029,0.036,-0.012,-0.023,103.0,112.0,99.0,13.4,1505.3,326.4,-0.7,1.9,2470.142,13.32,0.037,108.4
2019-07-25T03:02:43,42.805,6.029,0.031,0.006,-0.016,103.0,113.0,100.0,13.4,1505.3,326.8,-0.7,1.8,2470.152,13.32,0.031,79.0
2019-07-25T03:05:44,42.805,6.029,0.047,0.02,-0.028,102.0,111.0,99.0,13.4,1505.3,326.7,-0.7,1.8,2470.152,13.32,0.051,67.0
2019-07-25T03:08:45,42.805,6.029,0.024,-0.011,-0.019,103.0,111.0,99.0,13.4,1505.3,327.0,-0.7,1.8,2470.145,13.32,0.026,114.6
2019-07-25T03:11:46,42.805,6.029,0.026,0.007,-0.028,101.0,115.0,99.0,13.4,1505.3,324.2,-0.7,1.8,2470.138,13.32,0.026,74.9
2019-07-25T03:14:47,42.805,6.029,0.03,0.005,-0.007,102.0,113.0,100.0,13.4,1505.3,324.5,-0.7,1.9,2470.115,13.32,0.03,80.5
2019-07-25T03:17:48,42.805,6.029,0.034,0.003,-0.012,103.0,112.0,98.0,13.3,1505.3,327.8,-0.7,1.8,2470.116,13.32,0.034,85.0
2019-07-25T03:20:49,42.805,6.029,0.016,0.023,-0.038,103.0,109.0,99.0,13.4,1505.3,324.8,-0.7,1.9,2470.122,13.32,0.028,34.8
2019-07-25T03:23:50,42.805,6.029,0.019,0.026,-0.013,104.0,111.0,98.0,13.4,1505.3,323.5,-0.7,1.9,2470.128,13.32,0.032,36.2
2019-07-25T03:26:51,42.805,6.029,0.052,-0.007,-0.01,101.0,111.0,100.0,13.4,1505.3,327.0,-0.7,1.9,2470.133,13.32,0.052,97.7
2019-07-25T03:29:52,42.805,6.029,0.008,0.012,-0.043,102.0,112.0,100.0,13.4,1505.3,326.4,-0.7,1.8,2470.105,13.32,0.014,33.7
2019-07-25T03:32:53,42.805,6.029,0.011,0.007,-0.021,103.0,109.0,98.0,13.3,1505.3,327.1,-0.7,1.8,2470.107,13.32,0.013,57.5
2019-07-25T03:35:54,42.805,6.029,0.032,-0.006,0.013,104.0,112.0,100.0,13.4,1505.3,326.2,-0.7,1.8,2470.06,13.32,0.032,100.6
2019-07-25T03:38:55,42.805,6.029,0.045,0.003,-0.002,102.0,114.0,99.0,13.4,1505.3,325.9,-0.7,1.8,2470.125,13.32,0.045,86.2
2019-07-25T03:41:56,42.805,6.029,0.023,-0.016,-0.041,102.0,113.0,99.0,13.4,1505.3,326.7,-0.7,1.8,2470.152,13.32,0.028,124.8
2019-07-25T03:44:57,42.805,6.029,0.028,0.009,-0.035,102.0,113.0,98.0,13.4,1505.3,325.6,-0.7,1.8,2470.169,13.32,0.029,72.2
2019-07-25T03:47:58,42.805,6.029,0.014,0.006,-0.06,102.0,111.0,98.0,13.4,1505.3,326.3,-0.7,1.8,2470.061,13.32,0.015,66.8
2019-07-25T03:50:59,42.805,6.029,0.019,0.01,-0.027,102.0,110.0,99.0,13.4,1505.3,324.5,-0.7,1.9,2470.137,13.32,0.021,62.2
2019-07-25T03:54:00,42.805,6.029,0.036,0.003,-0.013,102.0,113.0,99.0,13.4,1505.3,325.6,-0.7,1.8,2470.072,13.32,0.036,85.2
2019-07-25T03:57:01,42.805,6.029,0.077,-0.001,-0.006,102.0,109.0,99.0,13.4,1505.3,324.6,-0.7,1.8,2470.115,13.32,0.077,90.7
2019-07-25T04:00:02,42.805,6.029,0.015,0.031,-0.023,102.0,114.0,99.0,13.3,1505.3,326.8,-0.7,1.8,2470.123,13.32,0.034,25.8
2019-07-25T04:03:03,42.805,6.029,0.029,0.004,0.02,102.0,112.0,99.0,13.4,1505.3,323.5,-0.7,1.9,2470.106,13.32,0.029,82.2
2019-07-25T04:06:04,42.805,6.029,0.016,0.023,-0.041,103.0,114.0,99.0,13.4,1505.3,325.7,-0.7,1.8,2470.155,13.32,0.028,34.8
2019-07-25T04:09:05,42.805,6.029,0.048,0.014,-0.017,101.0,113.0,99.0,13.4,1505.3,323.9,-0.7,1.8,2470.137,13.32,0.05,73.7
2019-07-25T04:12:06,42.805,6.029,0.02,0.003,-0.015,103.0,111.0,99.0,13.4,1505.3,324.8,-0.7,1.8,2470.107,13.32,0.02,81.5
2019-07-25T04:15:07,42.805,6.029,0.028,-0.025,-0.029,103.0,112.0,99.0,13.4,1505.3,327.2,-0.7,1.9,2470.075,13.32,0.037,131.8
2019-07-25T04:18:08,42.805,6.029,0.036,0.0,0.027,103.0,110.0,100.0,13.3,1505.3,325.5,-0.8,1.8,2470.147,13.32,0.036,90.0
2019-07-25T04:21:09,42.805,6.029,0.048,0.03,-0.015,102.0,114.0,99.0,13.4,1505.3,324.9,-0.7,1.8,2470.103,13.32,0.056,58.0
2019-07-25T04:24:10,42.805,6.029,0.037,-0.011,0.01,102.0,110.0,100.0,13.3,1505.3,326.7,-0.7,1.9,2470.167,13.32,0.038,106.6
2019-07-25T04:27:11,42.805,6.029,0.043,-0.003,-0.043,102.0,113.0,99.0,13.4,1505.3,328.4,-0.7,1.9,2470.13,13.32,0.043,94.0
2019-07-25T04:30:12,42.805,6.029,0.038,0.017,-0.014,101.0,112.0,100.0,13.3,1505.3,326.3,-0.7,1.8,2470.103,13.32,0.041,65.9
2019-07-25T04:33:13,42.805,6.029,0.035,0.011,0.0,102.0,112.0,100.0,13.4,1505.3,326.2,-0.7,1.9,2470.119,13.32,0.036,72.6
2019-07-25T04:36:14,42.805,6.029,0.032,0.011,-0.005,102.0,110.0,99.0,13.3,1505.3,323.5,-0.7,1.8,2470.056,13.32,0.033,71.0
2019-07-25T04:39:15,42.805,6.029,0.035,0.017,-0.037,102.0,113.0,98.0,13.4,1505.3,323.5,-0.7,1.8,2470.051,13.32,0.038,64.1
2019-07-25T04:42:16,42.805,6.029,0.043,0.001,0.005,102.0,111.0,98.0,13.4,1505.3,325.8,-0.7,1.8,2470.086,13.32,0.043,88.7
2019-07-25T04:45:17,42.805,6.029,0.031,0.027,-0.018,102.0,112.0,99.0,13.4,1505.3,324.5,-0.7,1.8,2470.121,13.32,0.041,48.9
2019-07-25T04:48:18,42.805,6.029,0.014,0.018,0.0,103.0,113.0,98.0,13.4,1505.3,326.5,-0.7,1.8,2470.035,13.32,0.022,37.9
2019-07-25T04:51:19,42.805,6.029,0.053,0.0,-0.002,102.0,111.0,99.0,13.3,1505.3,324.6,-0.8,1.9,2470.101,13.32,0.053,90.0
2019-07-25T04:54:20,42.805,6.029,0.027,0.013,-0.022,102.0,113.0,99.0,13.3,1505.3,324.8,-0.7,1.8,2470.129,13.32,0.029,64.3
2019-07-25T04:57:21,42.805,6.029,0.06,0.009,0.006,103.0,111.0,100.0,13.4,1505.3,327.3,-0.7,1.9,2470.077,13.32,0.06,81.5
2019-07-25T05:00:22,42.805,6.029,0.046,0.017,-0.004,103.0,111.0,99.0,13.4,1505.3,324.0,-0.7,1.8,2470.062,13.32,0.049,69.7
2019-07-25T05:03:23,42.805,6.029,0.028,0.0,-0.01,102.0,111.0,99.0,13.4,1505.3,325.9,-0.7,1.9,2470.108,13.32,0.028,90.0
2019-07-25T05:06:24,42.805,6.029,0.042,-0.005,-0.016,102.0,112.0,99.0,13.4,1505.3,324.5,-0.7,1.8,2470.106,13.32,0.042,96.8
2019-07-25T05:09:25,42.805,6.029,0.046,0.008,-0.04,104.0,113.0,99.0,13.4,1505.3,326.2,-0.7,1.8,2470.079,13.32,0.046,80.1
2019-07-25T05:12:26,42.805,6.029,0.049,0.0,-0.029,103.0,111.0,99.0,13.4,1505.3,323.0,-0.7,1.8,2470.051,13.32,0.049,90.0
2019-07-25T05:15:27,42.805,6.029,0.042,0.005,0.0,101.0,113.0,99.0,13.4,1505.3,323.3,-0.7,1.9,2470.092,13.32,0.042,83.2
2019-07-25T05:18:28,42.805,6.029,0.018,0.029,-0.043,103.0,112.0,99.0,13.4,1505.3,325.2,-0.7,1.8,2470.076,13.32,0.034,31.8
2019-07-25T05:21:29,42.805,6.029,0.036,-0.007,-0.04,102.0,111.0,99.0,13.3,1505.3,326.4,-0.7,1.8,2470.127,13.32,0.036,101.0
2019-07-25T05:24:30,42.805,6.029,0.01,-0.01,-0.028,102.0,110.0,98.0,13.3,1505.3,328.1,-0.7,1.8,2470.105,13.32,0.014,135.0
2019-07-25T05:27:31,42.805,6.029,0.031,0.003,0.0,102.0,112.0,98.0,13.4,1505.3,326.9,-0.7,1.8,2470.076,13.32,0.031,84.5
2019-07-25T05:30:32,42.805,6.029,0.063,0.022,-0.025,101.0,113.0,100.0,13.4,1505.3,324.0,-0.7,1.8,2470.087,13.32,0.066,70.8
2019-07-25T05:33:33,42.805,6.029,0.044,-0.001,-0.024,103.0,111.0,99.0,13.4,1505.3,325.2,-0.7,1.8,2470.066,13.32,0.044,91.3
2019-07-25T05:36:34,42.805,6.029,0.036,0.007,-0.022,102.0,109.0,99.0,13.4,1505.3,326.9,-0.7,1.8,2470.086,13.32,0.036,79.0
2019-07-25T05:39:35,42.805,6.029,0.038,-0.016,-0.03,104.0,113.0,99.0,13.3,1505.3,327.5,-0.7,1.8,2470.087,13.32,0.041,112.8
2019-07-25T05:42:36,42.805,6.029,0.013,-0.003,-0.011,103.0,111.0,98.0,13.3,1505.3,323.4,-0.7,1.8,2470.07,13.32,0.013,103.0
2019-07-25T05:45:37,42.805,6.029,0.021,-0.014,-0.074,102.0,112.0,99.0,13.4,1505.3,326.3,-0.7,1.8,2470.023,13.32,0.025,123.7
2019-07-25T05:48:38,42.805,6.029,0.047,0.014,-0.005,101.0,115.0,99.0,13.4,1505.3,326.7,-0.7,1.8,2470.066,13.32,0.049,73.4
2019-07-25T05:51:39,42.805,6.029,0.023,0.002,-0.054,103.0,114.0,99.0,13.4,1505.3,324.5,-0.8,1.8,2470.083,13.32,0.023,85.0
2019-07-25T05:54:40,42.805,6.029,0.041,-0.002,0.002,100.0,113.0,100.0,13.3,1505.3,328.2,-0.7,1.8,2470.084,13.32,0.041,92.8
2019-07-25T05:57:41,42.805,6.029,0.023,0.016,-0.029,103.0,112.0,99.0,13.4,1505.3,328.2,-0.7,1.8,2470.031,13.32,0.028,55.2
2019-07-25T06:00:42,42.805,6.029,0.033,-0.002,-0.018,102.0,113.0,98.0,13.3,1505.3,325.8,-0.7,1.8,2470.072,13.32,0.033,93.5
2019-07-25T06:03:43,42.805,6.029,0.015,-0.002,-0.03,101.0,113.0,98.0,13.4,1505.3,323.8,-0.7,1.8,2470.092,13.32,0.015,97.6
2019-07-25T06:06:44,42.805,6.029,0.029,0.0,-0.039,103.0,112.0,99.0,13.4,1505.3,325.8,-0.7,1.8,2470.059,13.32,0.028,90.0
2019-07-25T06:09:45,42.805,6.029,0.012,0.004,-0.052,102.0,113.0,98.0,13.3,1505.3,325.9,-0.7,1.8,2470.078,13.32,0.012,71.6
2019-07-25T06:12:46,42.805,6.029,0.022,-0.003,-0.018,102.0,112.0,99.0,13.4,1505.3,326.0,-0.7,1.8,2470.049,13.32,0.022,97.8
2019-07-25T06:15:47,42.805,6.029,0.042,0.004,-0.054,102.0,109.0,99.0,13.3,1505.3,326.8,-0.7,1.8,2470.009,13.32,0.042,84.6
2019-07-25T06:18:48,42.805,6.029,0.039,0.002,0.001,101.0,114.0,98.0,13.4,1505.3,326.2,-0.7,1.8,2470.037,13.32,0.039,87.1
2019-07-25T06:21:49,42.805,6.029,0.043,0.008,-0.013,102.0,112.0,98.0,13.4,1505.3,323.6,-0.7,1.8,2470.03,13.32,0.043,79.5
2019-07-25T06:24:50,42.805,6.029,0.032,-0.013,-0.042,101.0,114.0,98.0,13.4,1505.3,327.2,-0.7,1.9,2470.059,13.32,0.034,112.1
2019-07-25T06:27:51,42.805,6.029,0.028,0.002,-0.032,100.0,113.0,99.0,13.3,1505.3,324.7,-0.7,1.8,2470.043,13.32,0.028,85.9
2019-07-25T06:30:52,42.805,6.029,0.027,0.002,-0.013,102.0,110.0,100.0,13.4,1505.3,325.4,-0.7,1.9,2470.122,13.32,0.027,85.8
2019-07-25T06:33:53,42.805,6.029,0.02,0.017,-0.046,104.0,114.0,98.0,13.4,1505.3,328.4,-0.7,1.8,2470.047,13.32,0.026,49.6
2019-07-25T06:36:54,42.805,6.029,0.05,-0.005,-0.017,102.0,112.0,98.0,13.4,1505.3,323.5,-0.7,1.8,2470.035,13.32,0.05,95.7
2019-07-25T06:39:55,42.805,6.029,0.042,-0.001,-0.002,103.0,109.0,97.0,13.4,1505.3,324.8,-0.7,1.8,2470.082,13.32,0.042,91.4
2019-07-25T06:42:56,42.805,6.029,0.034,0.002,-0.006,101.0,112.0,99.0,13.4,1505.3,327.1,-0.7,1.9,2470.068,13.32,0.034,86.6
2019-07-25T06:45:57,42.805,6.029,0.04,-0.009,-0.001,102.0,111.0,98.0,13.4,1505.3,326.7,-0.7,1.8,2470.061,13.32,0.041,102.7
2019-07-25T06:48:58,42.805,6.029,0.036,0.0,-0.042,103.0,112.0,99.0,13.4,1505.3,326.9,-0.7,1.8,2470.066,13.32,0.036,90.0
2019-07-25T06:51:59,42.805,6.029,0.035,0.017,-0.012,102.0,111.0,98.0,13.4,1505.3,324.7,-0.7,1.8,2470.029,13.32,0.038,64.1
2019-07-25T06:55:00,42.805,6.029,0.032,0.005,-0.006,102.0,111.0,98.0,13.4,1505.3,323.3,-0.8,1.8,2470.083,13.32,0.032,81.1
2019-07-25T06:58:01,42.805,6.029,0.023,0.013,0.0,102.0,114.0,97.0,13.3,1505.3,327.2,-0.7,1.8,2470.04,13.32,0.026,60.5
2019-07-25T07:01:02,42.805,6.029,0.038,0.011,-0.02,101.0,115.0,97.0,13.4,1505.3,327.8,-0.7,1.8,2470.096,13.32,0.039,73.9
2019-07-25T07:04:03,42.805,6.029,0.046,0.006,-0.006,101.0,113.0,98.0,13.4,1505.3,323.8,-0.7,1.8,2470.048,13.32,0.046,82.6
2019-07-25T07:07:04,42.805,6.029,0.05,-0.004,-0.035,101.0,110.0,98.0,13.4,1505.3,326.3,-0.7,1.8,2470.02,13.32,0.05,94.6
2019-07-25T07:10:05,42.805,6.029,0.023,0.017,-0.042,100.0,112.0,98.0,13.4,1505.3,325.8,-0.7,1.8,2470.102,13.32,0.028,53.5
2019-07-25T07:13:06,42.805,6.029,0.049,0.007,-0.012,101.0,113.0,98.0,13.3,1505.3,323.6,-0.8,1.8,2470.026,13.32,0.049,81.9
2019-07-25T07:16:07,42.805,6.029,0.046,0.009,-0.025,101.0,113.0,98.0,13.3,1505.3,326.7,-0.7,1.8,2470.024,13.32,0.046,78.9
2019-07-25T07:19:08,42.805,6.029,0.025,0.01,0.003,101.0,112.0,98.0,13.4,1505.3,325.2,-0.7,1.9,2470.069,13.32,0.026,68.2
2019-07-25T07:22:09,42.805,6.029,0.037,0.021,-0.049,101.0,114.0,98.0,13.4,1505.3,324.4,-0.8,1.9,2470.07,13.32,0.042,60.4
2019-07-25T07:25:10,42.805,6.029,0.034,0.011,-0.041,101.0,114.0,98.0,13.4,1505.3,323.5,-0.7,1.8,2470.064,13.32,0.035,72.1
2019-07-25T07:28:11,42.805,6.029,0.014,0.002,-0.034,102.0,114.0,97.0,13.3,1505.3,326.6,-0.7,1.8,2470.02,13.32,0.014,81.9
2019-07-25T07:31:12,42.805,6.029,0.038,0.003,-0.064,100.0,114.0,98.0,13.4,1505.3,325.8,-0.7,1.9,2470.066,13.32,0.038,85.5
2019-07-25T07:34:13,42.805,6.029,0.029,0.022,-0.004,101.0,113.0,99.0,13.4,1505.3,326.1,-0.7,1.8,2469.999,13.32,0.036,52.8
2019-07-25T07:37:14,42.805,6.029,0.026,0.003,-0.035,100.0,118.0,98.0,13.4,1505.3,325.4,-0.7,1.8,2470.057,13.32,0.026,83.4
2019-07-25T07:40:15,42.805,6.029,0.047,0.01,-0.023,100.0,113.0,99.0,13.3,1505.3,324.0,-0.7,1.8,2470.03,13.32,0.048,78.0
2019-07-25T07:43:16,42.805,6.029,0.013,0.003,-0.019,100.0,115.0,97.0,13.4,1505.3,327.1,-0.7,1.9,2470.052,13.32,0.013,77.0
2019-07-25T07:46:17,42.805,6.029,0.028,0.03,-0.01,102.0,116.0,98.0,13.4,1505.3,323.4,-0.7,1.8,2470.053,13.32,0.041,43.0
2019-07-25T07:49:18,42.805,6.029,0.032,0.013,-0.044,101.0,112.0,96.0,13.3,1505.3,325.7,-0.8,1.8,2470.078,13.32,0.034,67.9
2019-07-25T07:52:19,42.805,6.029,0.02,-0.011,-0.016,100.0,115.0,96.0,13.3,1505.3,324.9,-0.7,1.8,2470.098,13.32,0.022,118.8
2019-07-25T07:55:20,42.805,6.029,0.004,0.017,-0.046,101.0,117.0,97.0,13.4,1505.3,327.3,-0.7,1.8,2470.102,13.32,0.017,13.2
2019-07-25T07:58:21,42.805,6.029,0.018,0.012,-0.053,101.0,115.0,97.0,13.4,1505.3,324.0,-0.7,1.8,2470.045,13.32,0.021,56.3
2019-07-25T08:01:22,42.805,6.029,0.028,-0.01,-0.051,101.0,115.0,98.0,13.3,1505.3,326.5,-0.7,1.8,2470.054,13.32,0.029,109.6
2019-07-25T08:04:23,42.805,6.029,0.024,0.026,-0.031,100.0,121.0,97.0,13.4,1505.3,324.2,-0.7,1.8,2470.065,13.32,0.035,42.7
2019-07-25T08:07:24,42.805,6.029,0.027,0.009,-0.051,103.0,116.0,96.0,13.4,1505.3,324.6,-0.7,1.8,2470.081,13.32,0.028,71.6
2019-07-25T08:10:25,42.805,6.029,0.045,0.016,-0.004,101.0,115.0,97.0,13.4,1505.3,327.7,-0.7,1.9,2470.048,13.32,0.047,70.4
2019-07-25T08:13:26,42.805,6.029,0.023,0.04,-0.019,102.0,117.0,98.0,13.3,1505.3,324.1,-0.7,1.8,2470.046,13.32,0.046,29.9
2019-07-25T08:16:27,42.805,6.029,0.04,0.006,-0.019,101.0,113.0,97.0,13.4,1505.3,325.8,-0.7,1.8,2470.033,13.32,0.04,81.5
2019-07-25T08:19:28,42.805,6.029,0.026,0.025,-0.028,101.0,118.0,98.0,13.3,1505.3,325.7,-0.7,1.8,2470.061,13.32,0.036,46.1
2019-07-25T08:22:29,42.805,6.029,0.027,0.015,-0.037,103.0,115.0,98.0,13.3,1505.3,327.8,-0.7,1.9,2470.025,13.32,0.03,60.9
2019-07-25T08:25:30,42.805,6.029,0.007,0.023,-0.071,102.0,116.0,96.0,13.3,1505.3,324.5,-0.7,1.8,2470.026,13.32,0.024,16.9
2019-07-25T08:28:31,42.805,6.029,0.017,0.001,-0.027,101.0,112.0,98.0,13.4,1505.3,325.4,-0.7,1.8,2470.045,13.32,0.017,86.6
2019-07-25T08:31:32,42.805,6.029,0.019,0.004,0.003,101.0,117.0,97.0,13.3,1505.3,325.7,-0.7,1.8,2470.102,13.32,0.019,78.1
2019-07-25T08:34:33,42.805,6.029,0.051,-0.001,0.005,100.0,117.0,97.0,13.4,1505.3,326.9,-0.7,1.8,2470.053,13.32,0.051,91.1
2019-07-25T08:37:34,42.805,6.029,0.008,0.01,-0.028,100.0,120.0,98.0,13.4,1505.3,323.6,-0.7,1.9,2470.057,13.32,0.012,38.7
2019-07-25T08:40:35,42.805,6.029,0.011,0.0,-0.039,100.0,118.0,97.0,13.4,1505.3,325.7,-0.7,1.8,2470.04,13.32,0.011,90.0
2019-07-25T08:43:36,42.805,6.029,0.028,0.007,-0.009,101.0,119.0,96.0,13.4,1505.3,323.7,-0.7,1.8,2470.029,13.32,0.028,76.0
2019-07-25T08:46:37,42.805,6.029,0.035,0.013,-0.013,102.0,115.0,97.0,13.4,1505.3,324.3,-0.7,1.8,2470.075,13.32,0.037,69.6
2019-07-25T08:49:38,42.805,6.029,-0.002,0.011,-0.038,100.0,116.0,97.0,13.4,1505.3,323.6,-0.7,1.9,2470.05,13.32,0.011,349.7
2019-07-25T08:52:39,42.805,6.029,0.032,0.018,-0.011,101.0,117.0,97.0,13.4,1505.3,327.4,-0.7,1.8,2470.07,13.32,0.036,60.6
2019-07-25T08:55:40,42.805,6.029,0.016,0.016,-0.03,100.0,119.0,99.0,13.3,1505.3,323.7,-0.7,1.8,2470.084,13.32,0.022,45.0
2019-07-25T08:58:41,42.805,6.029,0.024,0.015,-0.019,101.0,119.0,98.0,13.4,1505.3,327.0,-0.7,1.8,2470.081,13.32,0.028,58.0
2019-07-25T09:01:42,42.805,6.029,0.036,0.003,-0.024,101.0,116.0,98.0,13.4,1505.3,324.1,-0.7,1.8,2470.019,13.32,0.036,85.2
2019-07-25T09:04:43,42.805,6.029,0.032,-0.002,-0.017,101.0,118.0,96.0,13.4,1505.3,328.2,-0.7,1.9,2470.095,13.32,0.032,93.6
2019-07-25T09:07:44,42.805,6.029,0.015,0.003,-0.031,101.0,117.0,99.0,13.4,1505.3,323.5,-0.7,1.8,2470.081,13.32,0.015,78.7
2019-07-25T09:10:45,42.805,6.029,0.025,0.016,-0.047,102.0,116.0,99.0,13.4,1505.3,327.6,-0.7,1.8,2470.072,13.32,0.029,57.4
2019-07-25T09:13:46,42.805,6.029,0.059,0.032,0.007,100.0,116.0,98.0,13.3,1505.3,327.9,-0.7,1.8,2470.088,13.32,0.067,61.5
2019-07-25T09:16:47,42.805,6.029,0.053,0.01,-0.002,102.0,115.0,98.0,13.3,1505.3,326.2,-0.8,1.9,2470.076,13.32,0.053,79.3
2019-07-25T09:19:48,42.805,6.029,0.01,0.012,-0.049,102.0,119.0,98.0,13.4,1505.3,324.1,-0.7,1.8,2470.048,13.32,0.015,39.8
2019-07-25T09:22:49,42.805,6.029,0.037,0.019,-0.036,101.0,115.0,97.0,13.4,1505.3,323.8,-0.7,1.8,2470.087,13.32,0.041,62.8
2019-07-25T09:25:50,42.805,6.029,0.019,0.034,0.002,103.0,113.0,97.0,13.3,1505.3,326.3,-0.7,1.8,2470.059,13.32,0.038,29.2
2019-07-25T09:28:51,42.805,6.029,0.04,0.011,-0.028,100.0,116.0,99.0,13.4,1505.3,326.5,-0.7,1.9,2470.053,13.32,0.041,74.6
2019-07-25T09:31:52,42.805,6.029,0.05,0.007,-0.047,101.0,113.0,98.0,13.3,1505.3,325.0,-0.7,1.8,2470.107,13.32,0.05,82.0
2019-07-25T09:34:53,42.805,6.029,0.048,0.035,0.008,102.0,113.0,99.0,13.3,1505.3,323.0,-0.7,1.8,2470.116,13.32,0.059,53.9
2019-07-25T09:37:54,42.805,6.029,0.016,0.023,-0.024,101.0,112.0,98.0,13.4,1505.3,324.2,-0.7,1.9,2470.113,13.32,0.028,34.8